P/2015 M2 ( PanSTARRS )

Japanese version
Home page
Updated on October 9, 2017

---------------------------------------------------------------------

* Profile

Discovery Date June 28, 2015
Magnitude 20.0 mag
Discoverer Pan-STARRS 1 telescope (Haleakala)

* Pictures

* Orbital Elements

Epoch 2015 Sept. 15.0 TT = JDT 2457280.5
T 2015 Aug. 31.67719 TT                                 MPCW
q   5.9128291            (2000.0)            P               Q
n   0.05099867     Peri.  224.82329     +0.66013249     +0.74795631
a   7.2016187      Node    86.61588     -0.66827344     +0.62685800
e   0.1789583      Incl.    3.97407     -0.34298063     +0.21819808
P  19.33
From 131 observations 2015 June 22-2017 Sept. 30, mean residual 0".5.

* Magnitudes Graph

        m1 = 8.0 + 5 log d + 10.0 log r

---------------------------------------------------------------------

The orbital elements are published on M.P.E.C. 2017-T14.
The magnitudes graphs are made with Comet for Windows.

---------------------------------------------------------------------

Copyright(C) Seiichi Yoshida (comet@aerith.net). All rights reserved.